SWA3750 KCMH-KHOU

Flight info

Callsign SWA3750
Flight time N/A
Altitude 38000
Route PKACZ TARRY DQN HEVAN TIIDE HUMMS MUDHO BAKRE Q29 HARES SWEUP WAPPL7
Aircraft B38M/M-SDE1FGHILORVWXY/HB1

Departure

Time N/A
Airport John Glenn Columbus International Airport (KCMH)

Arrival

Time 2026-05-05 20:24
Airport William P. Hobby Airport (KHOU)
Time Latitude Longitude Altitude Speed Heading
2026-05-05 19:43 31.79455 -92.85121 37882 ft 397 kts 230°
2026-05-05 19:43 31.75167 -92.89268 37875 ft 398 kts 230°
2026-05-05 19:44 31.70891 -92.93397 37882 ft 398 kts 229°
2026-05-05 19:44 31.66607 -92.97531 37878 ft 399 kts 229°
2026-05-05 19:45 31.62343 -93.01638 37881 ft 399 kts 229°
2026-05-05 19:45 31.58039 -93.05779 37879 ft 400 kts 229°
2026-05-05 19:46 31.53734 -93.09917 37881 ft 401 kts 229°
2026-05-05 19:46 31.49421 -93.14055 37874 ft 401 kts 229°
2026-05-05 19:47 31.45103 -93.18196 37876 ft 401 kts 229°
2026-05-05 19:47 31.40781 -93.22333 37873 ft 402 kts 229°
2026-05-05 19:48 31.36454 -93.26471 37874 ft 402 kts 229°
2026-05-05 19:48 31.32116 -93.30615 37876 ft 403 kts 229°
2026-05-05 19:49 31.28507 -93.34058 37879 ft 403 kts 229°
2026-05-05 19:49 31.24156 -93.38205 37883 ft 404 kts 229°
2026-05-05 19:50 31.19803 -93.42347 37885 ft 404 kts 229°
2026-05-05 19:50 31.15446 -93.46490 37883 ft 404 kts 229°
2026-05-05 19:51 31.11085 -93.50631 37875 ft 404 kts 228°
2026-05-05 19:51 31.06722 -93.54768 37874 ft 404 kts 228°
2026-05-05 19:52 31.02359 -93.58900 37879 ft 404 kts 228°
2026-05-05 19:52 30.97999 -93.63024 37665 ft 399 kts 228°
2026-05-05 19:52 30.95859 -93.65048 37192 ft 395 kts 228°
2026-05-05 19:53 30.93727 -93.67062 36777 ft 395 kts 228°
2026-05-05 19:53 30.91594 -93.69075 36376 ft 395 kts 228°
2026-05-05 19:53 30.89456 -93.71092 35976 ft 395 kts 228°
2026-05-05 19:53 30.87320 -93.73107 35592 ft 396 kts 228°
2026-05-05 19:54 30.85180 -93.75125 35207 ft 396 kts 228°
2026-05-05 19:54 30.83040 -93.77140 34832 ft 396 kts 228°
2026-05-05 19:54 30.80895 -93.79160 34459 ft 397 kts 228°
2026-05-05 19:54 30.78748 -93.81179 34095 ft 397 kts 227°
2026-05-05 19:55 30.76592 -93.83195 33709 ft 398 kts 227°
2026-05-05 19:55 30.74461 -93.85189 33305 ft 400 kts 227°
2026-05-05 19:55 30.72290 -93.87220 32859 ft 402 kts 227°
2026-05-05 19:55 30.70107 -93.89260 32394 ft 404 kts 227°
2026-05-05 19:56 30.67906 -93.91316 31945 ft 407 kts 227°
2026-05-05 19:56 30.65693 -93.93383 31496 ft 410 kts 227°
2026-05-05 19:56 30.63466 -93.95461 31060 ft 412 kts 227°
2026-05-05 19:56 30.61253 -93.97535 30621 ft 405 kts 227°
2026-05-05 19:57 30.59061 -93.99592 30205 ft 406 kts 227°
2026-05-05 19:57 30.56859 -94.01656 29759 ft 408 kts 227°
2026-05-05 19:57 30.54647 -94.03729 29262 ft 410 kts 227°
2026-05-05 19:57 30.52431 -94.05804 28771 ft 408 kts 227°
2026-05-05 19:58 30.50226 -94.07867 28302 ft 407 kts 227°
2026-05-05 19:58 30.48023 -94.09927 27837 ft 408 kts 226°
2026-05-05 19:58 30.45809 -94.11996 27371 ft 409 kts 226°
2026-05-05 19:58 30.43590 -94.14069 26914 ft 411 kts 226°
2026-05-05 19:59 30.41361 -94.16149 26460 ft 412 kts 226°
2026-05-05 19:59 30.39125 -94.18235 26014 ft 414 kts 226°
2026-05-05 19:59 30.36880 -94.20328 25578 ft 415 kts 226°
2026-05-05 19:59 30.34632 -94.22423 25157 ft 414 kts 226°
2026-05-05 20:00 30.32394 -94.24507 24738 ft 412 kts 226°
2026-05-05 20:00 30.30162 -94.26584 24333 ft 410 kts 226°
2026-05-05 20:00 30.27959 -94.28632 23936 ft 402 kts 226°
2026-05-05 20:00 30.25800 -94.30639 23521 ft 395 kts 226°
2026-05-05 20:01 30.23870 -94.32798 23035 ft 376 kts 240°
2026-05-05 20:01 30.22788 -94.35181 22624 ft 360 kts 255°
2026-05-05 20:01 30.21995 -94.37903 22188 ft 354 kts 255°
2026-05-05 20:01 30.21233 -94.40586 21764 ft 349 kts 255°
2026-05-05 20:02 30.20498 -94.43237 21329 ft 344 kts 256°
2026-05-05 20:02 30.19791 -94.45826 20910 ft 340 kts 256°
2026-05-05 20:02 30.19088 -94.48423 20488 ft 337 kts 255°
2026-05-05 20:02 30.18387 -94.51029 20068 ft 334 kts 255°
2026-05-05 20:03 30.17701 -94.53582 19655 ft 332 kts 255°
2026-05-05 20:03 30.17027 -94.56090 19258 ft 330 kts 255°
2026-05-05 20:03 30.16347 -94.58617 18857 ft 330 kts 255°
2026-05-05 20:03 30.15667 -94.61145 18458 ft 330 kts 255°
2026-05-05 20:04 30.14987 -94.63678 18041 ft 329 kts 255°
2026-05-05 20:04 30.14310 -94.66199 17586 ft 328 kts 254°
2026-05-05 20:04 30.13633 -94.68717 17137 ft 328 kts 254°
2026-05-05 20:04 30.12957 -94.71228 16688 ft 327 kts 254°
2026-05-05 20:05 30.12284 -94.73728 16246 ft 326 kts 254°
2026-05-05 20:05 30.11610 -94.76228 15804 ft 326 kts 253°
2026-05-05 20:05 30.10936 -94.78727 15377 ft 325 kts 253°
2026-05-05 20:05 30.10263 -94.81218 14943 ft 325 kts 253°
2026-05-05 20:06 30.09590 -94.83704 14522 ft 324 kts 253°
2026-05-05 20:06 30.08918 -94.86185 14100 ft 323 kts 253°
2026-05-05 20:06 30.08246 -94.88661 13685 ft 323 kts 253°
2026-05-05 20:06 30.07576 -94.91133 13273 ft 322 kts 253°
2026-05-05 20:07 30.06908 -94.93588 12988 ft 320 kts 253°
2026-05-05 20:07 30.06240 -94.96043 12762 ft 321 kts 253°
2026-05-05 20:07 30.05578 -94.98476 12524 ft 314 kts 253°
2026-05-05 20:07 30.04937 -95.00831 12298 ft 309 kts 253°
2026-05-05 20:08 30.04295 -95.03186 12076 ft 307 kts 253°
2026-05-05 20:08 30.03653 -95.05539 11847 ft 307 kts 253°
2026-05-05 20:08 30.03012 -95.07887 11625 ft 307 kts 252°
2026-05-05 20:08 30.02371 -95.10233 11401 ft 306 kts 252°
2026-05-05 20:09 30.01730 -95.12572 11179 ft 305 kts 252°
2026-05-05 20:09 30.00752 -95.14739 10927 ft 301 kts 230°
2026-05-05 20:09 29.99115 -95.16148 10712 ft 299 kts 206°
2026-05-05 20:09 29.97095 -95.16808 10496 ft 296 kts 197°
2026-05-05 20:10 29.95384 -95.17308 10304 ft 292 kts 197°
2026-05-05 20:10 29.93425 -95.17886 10090 ft 288 kts 197°
2026-05-05 20:10 29.91500 -95.18451 9863 ft 283 kts 197°
2026-05-05 20:10 29.89600 -95.19009 9593 ft 280 kts 197°
2026-05-05 20:11 29.87718 -95.19560 9293 ft 277 kts 197°
2026-05-05 20:11 29.85858 -95.20114 9020 ft 275 kts 197°
2026-05-05 20:11 29.84020 -95.20692 8737 ft 273 kts 197°
2026-05-05 20:11 29.82190 -95.21265 8463 ft 272 kts 198°
2026-05-05 20:12 29.80367 -95.21834 8184 ft 270 kts 197°
2026-05-05 20:12 29.78562 -95.22397 7909 ft 268 kts 197°
2026-05-05 20:12 29.76762 -95.22959 7645 ft 267 kts 197°
2026-05-05 20:12 29.74975 -95.23512 7371 ft 265 kts 197°
2026-05-05 20:13 29.73196 -95.24060 7114 ft 264 kts 198°
2026-05-05 20:13 29.71472 -95.24734 6851 ft 260 kts 205°
2026-05-05 20:13 29.69811 -95.25563 6602 ft 259 kts 205°
2026-05-05 20:13 29.68168 -95.26367 6391 ft 254 kts 204°
2026-05-05 20:14 29.66577 -95.27164 6167 ft 244 kts 210°
2026-05-05 20:14 29.65428 -95.28481 5980 ft 233 kts 242°
2026-05-05 20:14 29.64929 -95.30236 5812 ft 231 kts 251°
2026-05-05 20:14 29.64483 -95.31996 5638 ft 227 kts 251°
2026-05-05 20:15 29.64046 -95.33718 5453 ft 222 kts 250°
2026-05-05 20:15 29.63622 -95.35388 5263 ft 220 kts 250°
2026-05-05 20:15 29.63215 -95.37105 5087 ft 220 kts 257°
2026-05-05 20:15 29.63379 -95.38857 4902 ft 227 kts 286°
2026-05-05 20:16 29.64249 -95.40373 4645 ft 235 kts 308°
2026-05-05 20:16 29.65391 -95.41757 4351 ft 237 kts 309°
2026-05-05 20:16 29.66507 -95.43120 4065 ft 237 kts 308°
2026-05-05 20:16 29.67629 -95.44511 3797 ft 236 kts 308°
2026-05-05 20:17 29.68741 -95.45888 3535 ft 234 kts 308°
2026-05-05 20:17 29.69843 -95.47255 3293 ft 234 kts 307°
2026-05-05 20:17 29.70949 -95.48626 3083 ft 232 kts 307°
2026-05-05 20:17 29.72023 -95.49954 3036 ft 223 kts 307°
2026-05-05 20:18 29.73074 -95.51255 3012 ft 221 kts 308°
2026-05-05 20:18 29.74349 -95.52232 2972 ft 222 kts 341°
2026-05-05 20:18 29.75892 -95.52257 2997 ft 227 kts 15°
2026-05-05 20:18 29.77224 -95.51323 2996 ft 225 kts 50°
2026-05-05 20:19 29.77908 -95.49761 2993 ft 217 kts 86°
2026-05-05 20:19 29.77903 -95.48053 3037 ft 213 kts 100°
2026-05-05 20:19 29.77739 -95.46364 3034 ft 212 kts 102°
2026-05-05 20:19 29.77564 -95.44686 3005 ft 210 kts 103°
2026-05-05 20:20 29.77089 -95.43168 2967 ft 197 kts 128°
2026-05-05 20:20 29.76261 -95.41927 2979 ft 195 kts 136°
2026-05-05 20:20 29.75342 -95.40783 2846 ft 194 kts 138°
2026-05-05 20:20 29.74411 -95.39667 2626 ft 192 kts 138°
2026-05-05 20:21 29.73512 -95.38591 2394 ft 178 kts 138°
2026-05-05 20:21 29.72683 -95.37601 2180 ft 170 kts 139°
2026-05-05 20:21 29.71865 -95.36625 1971 ft 169 kts 140°
2026-05-05 20:21 29.71072 -95.35677 1761 ft 159 kts 140°
2026-05-05 20:22 29.70350 -95.34815 1581 ft 143 kts 141°
2026-05-05 20:22 29.69664 -95.33999 1393 ft 141 kts 141°
2026-05-05 20:22 29.68979 -95.33184 1204 ft 142 kts 140°
2026-05-05 20:22 29.68290 -95.32358 1033 ft 144 kts 140°
2026-05-05 20:23 29.67594 -95.31531 872 ft 144 kts 139°
2026-05-05 20:23 29.66901 -95.30698 632 ft 145 kts 137°
2026-05-05 20:23 29.66200 -95.29857 447 ft 145 kts 140°
2026-05-05 20:23 29.65509 -95.29034 251 ft 141 kts 139°
2026-05-05 20:24 29.64830 -95.28237 53 ft 135 kts 140°
2026-05-05 20:24 29.64347 -95.27664 54 ft 64 kts 134°
2026-05-05 20:24 29.64122 -95.27399 50 ft 43 kts 134°
2026-05-05 20:24 29.63937 -95.27144 54 ft 37 kts 112°
2026-05-05 20:25 29.63922 -95.26919 54 ft 20 kts 89°
2026-05-05 20:25 29.63922 -95.26893 54 ft 0 kts 91°
2026-05-05 20:26 29.63922 -95.26891 54 ft 1 kts 83°
2026-05-05 20:26 29.63935 -95.26874 51 ft 6 kts 33°
2026-05-05 20:27 29.64006 -95.26864 49 ft 15 kts
2026-05-05 20:27 29.64132 -95.26864 53 ft 19 kts 343°
2026-05-05 20:27 29.64229 -95.26977 52 ft 21 kts 310°
2026-05-05 20:27 29.64333 -95.27117 54 ft 24 kts 310°
2026-05-05 20:28 29.64425 -95.27283 52 ft 26 kts 313°
2026-05-05 20:28 29.64557 -95.27438 54 ft 27 kts 314°
2026-05-05 20:28 29.64706 -95.27514 51 ft 25 kts 359°
2026-05-05 20:28 29.64885 -95.27519 54 ft 27 kts 359°
2026-05-05 20:29 29.65068 -95.27525 48 ft 18 kts 350°
2026-05-05 20:29 29.65101 -95.27618 54 ft 15 kts 268°
2026-05-05 20:29 29.65101 -95.27731 54 ft 11 kts 288°
2026-05-05 20:29 29.65170 -95.27763 54 ft 11 kts 344°
2026-05-05 20:30 29.65207 -95.27778 51 ft 3 kts 338°
2026-05-05 20:30 29.65216 -95.27782 49 ft 0 kts 338°